When you browse on this site, cookies collect data to enhance your experience and personalize the content and advertising you see.
Visit our Privacy Policy to learn more. By continuing to use the site, you agree to this use of cookies and data.
  • In Austria
  • List of Countries
  • For 7 days
  • Water Temperature
  • Weather Map
  • News
  • Weather Widgets
  • user-avatar
    Login

    Hourly Weather Kolno

    Today, 6 June, Saturday

    Time Temperature Precipitation Wind Pressure Humidity
    00:00 +16°C° 0 mm 3 mps 742 mmHg 94%
    01:00 +16°C° 0 mm 3 mps 742 mmHg 95%
    02:00 +15°C° 0 mm 2 mps 742 mmHg 96%
    03:00 +16°C° 0.2 mm 2 mps 742 mmHg 96%
    04:00 +16°C° 0.2 mm 2 mps 742 mmHg 96%
    05:00 +16°C° 0.2 mm 2 mps 742 mmHg 97%
    06:00 +17°C° 0.2 mm 3 mps 743 mmHg 94%
    07:00 +18°C° 0.2 mm 3 mps 743 mmHg 92%
    08:00 +19°C° 0.2 mm 4 mps 744 mmHg 90%
    09:00 +20°C° 0 mm 4 mps 744 mmHg 84%
    10:00 +21°C° 0 mm 4 mps 744 mmHg 78%
    11:00 +22°C° 0 mm 4 mps 745 mmHg 71%
    12:00 +23°C° 0.1 mm 4 mps 745 mmHg 68%
    13:00 +25°C° 0.1 mm 4 mps 745 mmHg 64%
    14:00 +26°C° 0.1 mm 4 mps 746 mmHg 60%
    15:00 +25°C° 0.1 mm 4 mps 746 mmHg 61%
    16:00 +25°C° 0.1 mm 3 mps 746 mmHg 61%
    17:00 +25°C° 0.1 mm 3 mps 746 mmHg 61%
    18:00 +23°C° 0 mm 2 mps 746 mmHg 68%
    19:00 +21°C° 0 mm 1 mps 747 mmHg 76%
    20:00 +17°C° 0 mm 0 mps 747 mmHg 83%
    21:00 +19°C° 0 mm 1 mps 747 mmHg 84%
    22:00 +18°C° 0 mm 1 mps 748 mmHg 85%
    23:00 +16°C° 0 mm 1 mps 748 mmHg 86%

    Tomorrow, 7 June, Sunday

    Time Temperature Precipitation Wind Pressure Humidity
    00:00 +16°C° 0 mm 1 mps 748 mmHg 87%
    01:00 +16°C° 0 mm 1 mps 748 mmHg 87%
    02:00 +16°C° 0 mm 1 mps 749 mmHg 87%
    03:00 +16°C° 0 mm 2 mps 749 mmHg 88%
    04:00 +16°C° 0 mm 2 mps 749 mmHg 88%
    05:00 +17°C° 0 mm 2 mps 749 mmHg 89%
    06:00 +18°C° 0 mm 3 mps 749 mmHg 87%
    07:00 +19°C° 0 mm 3 mps 749 mmHg 86%
    08:00 +20°C° 0 mm 3 mps 749 mmHg 84%
    09:00 +21°C° 0 mm 3 mps 749 mmHg 80%
    10:00 +23°C° 0 mm 4 mps 749 mmHg 75%
    11:00 +26°C° 0 mm 4 mps 749 mmHg 71%
    12:00 +27°C° 0.3 mm 4 mps 749 mmHg 68%
    13:00 +28°C° 0.3 mm 4 mps 749 mmHg 65%
    14:00 +29°C° 0.3 mm 4 mps 748 mmHg 62%
    15:00 +29°C° 0.5 mm 4 mps 748 mmHg 63%
    16:00 +28°C° 0.5 mm 4 mps 748 mmHg 64%
    17:00 +28°C° 0.5 mm 4 mps 748 mmHg 65%
    18:00 +26°C° 0 mm 3 mps 748 mmHg 70%
    19:00 +24°C° 0 mm 3 mps 748 mmHg 75%
    20:00 +21°C° 0 mm 3 mps 748 mmHg 81%
    21:00 +20°C° 0 mm 3 mps 748 mmHg 83%
    22:00 +20°C° 0 mm 3 mps 748 mmHg 86%
    23:00 +19°C° 0 mm 3 mps 748 mmHg 88%

    Day after tomorrow, 8 June, Monday

    Time Temperature Precipitation Wind Pressure Humidity
    00:00 +18°C° 0 mm 3 mps 748 mmHg 90%
    01:00 +18°C° 0 mm 3 mps 748 mmHg 93%
    02:00 +17°C° 0 mm 3 mps 748 mmHg 95%
    03:00 +17°C° 0 mm 3 mps 748 mmHg 94%
    04:00 +17°C° 0 mm 3 mps 748 mmHg 93%
    05:00 +17°C° 0 mm 3 mps 748 mmHg 92%
    06:00 +19°C° 0 mm 3 mps 748 mmHg 86%
    07:00 +21°C° 0 mm 3 mps 748 mmHg 79%
    08:00 +24°C° 0 mm 3 mps 749 mmHg 73%
    09:00 +26°C° 0 mm 4 mps 749 mmHg 66%
    10:00 +27°C° 0 mm 4 mps 749 mmHg 59%
    11:00 +29°C° 0 mm 4 mps 749 mmHg 52%
    12:00 +29°C° 0 mm 4 mps 749 mmHg 51%
    13:00 +30°C° 0 mm 4 mps 749 mmHg 49%
    14:00 +30°C° 0 mm 4 mps 748 mmHg 47%
    15:00 +29°C° 0 mm 4 mps 748 mmHg 51%
    16:00 +29°C° 0 mm 4 mps 748 mmHg 55%
    17:00 +29°C° 0 mm 3 mps 747 mmHg 59%
    18:00 +27°C° 0 mm 3 mps 748 mmHg 66%
    19:00 +25°C° 0 mm 3 mps 748 mmHg 72%
    20:00 +23°C° 0 mm 2 mps 748 mmHg 79%
    21:00 +21°C° 0 mm 2 mps 748 mmHg 82%
    22:00 +20°C° 0 mm 2 mps 748 mmHg 86%
    23:00 +19°C° 0 mm 2 mps 748 mmHg 89%

    9 June, Tuesday

    Time Temperature Precipitation Wind Pressure Humidity
    00:00 +19°C° 0 mm 2 mps 748 mmHg 90%
    01:00 +18°C° 0 mm 2 mps 748 mmHg 91%
    02:00 +18°C° 0 mm 2 mps 748 mmHg 92%
    03:00 +18°C° 0 mm 2 mps 748 mmHg 93%
    04:00 +18°C° 0 mm 2 mps 748 mmHg 93%
    05:00 +18°C° 0 mm 2 mps 748 mmHg 94%
    06:00 +20°C° 0 mm 3 mps 748 mmHg 87%
    07:00 +22°C° 0 mm 3 mps 749 mmHg 81%
    08:00 +25°C° 0 mm 3 mps 749 mmHg 75%
    09:00 +26°C° 0 mm 4 mps 749 mmHg 67%
    10:00 +28°C° 0 mm 4 mps 749 mmHg 60%
    11:00 +29°C° 0 mm 4 mps 749 mmHg 53%
    12:00 +30°C° 0 mm 4 mps 749 mmHg 51%
    13:00 +30°C° 0 mm 4 mps 748 mmHg 49%
    14:00 +32°C° 0 mm 4 mps 748 mmHg 48%
    15:00 +30°C° 0 mm 3 mps 748 mmHg 51%
    16:00 +30°C° 0 mm 3 mps 748 mmHg 55%
    17:00 +29°C° 0 mm 2 mps 748 mmHg 58%
    18:00 +27°C° 0.1 mm 2 mps 748 mmHg 66%
    19:00 +26°C° 0.1 mm 2 mps 748 mmHg 73%
    20:00 +24°C° 0.1 mm 2 mps 748 mmHg 80%
    21:00 +23°C° 0 mm 2 mps 748 mmHg 83%
    22:00 +21°C° 0 mm 2 mps 749 mmHg 85%
    23:00 +20°C° 0 mm 2 mps 749 mmHg 87%

    10 June, Wednesday

    Time Temperature Precipitation Wind Pressure Humidity
    00:00 +20°C° 0 mm 2 mps 749 mmHg 89%
    01:00 +19°C° 0 mm 2 mps 749 mmHg 91%
    02:00 +20°C° 0 mm 1 mps 749 mmHg 92%
    03:00 +20°C° 0 mm 1 mps 749 mmHg 93%
    04:00 +19°C° 0 mm 2 mps 748 mmHg 93%
    05:00 +19°C° 0 mm 2 mps 748 mmHg 93%
    06:00 +21°C° 0 mm 2 mps 749 mmHg 87%
    07:00 +24°C° 0 mm 2 mps 749 mmHg 81%
    08:00 +26°C° 0 mm 2 mps 749 mmHg 75%
    09:00 +27°C° 0.1 mm 3 mps 749 mmHg 69%
    10:00 +28°C° 0.1 mm 3 mps 748 mmHg 63%
    11:00 +30°C° 0.1 mm 3 mps 748 mmHg 57%
    12:00 +30°C° 0.8 mm 3 mps 748 mmHg 59%
    13:00 +30°C° 0.8 mm 3 mps 748 mmHg 60%
    14:00 +30°C° 0.8 mm 3 mps 748 mmHg 62%
    15:00 +29°C° 1 mm 2 mps 748 mmHg 65%
    16:00 +29°C° 1 mm 2 mps 747 mmHg 69%
    17:00 +28°C° 1 mm 1 mps 747 mmHg 72%
    18:00 +27°C° 0.7 mm 1 mps 747 mmHg 76%
    19:00 +25°C° 0.7 mm 1 mps 747 mmHg 80%
    20:00 +24°C° 0.7 mm 2 mps 748 mmHg 85%
    21:00 +23°C° 0.1 mm 2 mps 748 mmHg 87%
    22:00 +21°C° 0.1 mm 2 mps 748 mmHg 89%
    23:00 +20°C° 0.1 mm 2 mps 748 mmHg 90%

    11 June, Thursday

    Time Temperature Precipitation Wind Pressure Humidity
    00:00 +20°C° 0 mm 2 mps 748 mmHg 92%
    01:00 +20°C° 0 mm 2 mps 748 mmHg 93%
    02:00 +19°C° 0 mm 2 mps 748 mmHg 94%
    03:00 +19°C° 0.1 mm 2 mps 748 mmHg 94%
    04:00 +19°C° 0.1 mm 2 mps 748 mmHg 95%
    05:00 +20°C° 0.1 mm 2 mps 748 mmHg 95%
    06:00 +21°C° 0.2 mm 2 mps 748 mmHg 91%
    07:00 +24°C° 0.2 mm 2 mps 748 mmHg 88%
    08:00 +25°C° 0.2 mm 2 mps 748 mmHg 84%
    09:00 +27°C° 0.4 mm 3 mps 748 mmHg 76%
    10:00 +28°C° 0.4 mm 3 mps 748 mmHg 69%
    11:00 +30°C° 0.4 mm 4 mps 748 mmHg 62%
    12:00 +30°C° 0.8 mm 4 mps 748 mmHg 62%
    13:00 +30°C° 0.8 mm 3 mps 748 mmHg 63%
    14:00 +30°C° 0.8 mm 3 mps 747 mmHg 64%
    15:00 +30°C° 0.8 mm 3 mps 747 mmHg 65%
    16:00 +29°C° 0.8 mm 3 mps 747 mmHg 66%
    17:00 +29°C° 0.8 mm 3 mps 747 mmHg 67%
    18:00 +28°C° 0.4 mm 3 mps 747 mmHg 74%
    19:00 +26°C° 0.4 mm 3 mps 747 mmHg 81%
    20:00 +24°C° 0.4 mm 3 mps 748 mmHg 87%
    21:00 +22°C° 0.1 mm 3 mps 748 mmHg 90%
    22:00 +23°C° 0.1 mm 2 mps 748 mmHg 92%
    23:00 +21°C° 0.1 mm 2 mps 748 mmHg 94%
    Show more